Regional Weather Roundup
Issued by NWS

Home | Current Version | Previous Version | Text Only | Print | Product List | Glossary On
Versions: 1 2 3 4 5 6 7 8 9 10 11 12 13 14 15 16 17 18 19 20 21 22 23 24 25 26 27 28 29 30 31 32 33 34 35 36 37 38 39 40 41 42 43 44 45 46 47 48 49 50
000
ASUS44 KFWD 101515
RWRTX
NORTH TEXAS HOURLY WEATHER ROUNDUP
NATIONAL WEATHER SERVICE FORT WORTH TX
900 AM CST WED FEB 10 2016

NOTE: "FAIR" INDICATES FEW OR NO CLOUDS BELOW 12,000 FEET WITH NO
SIGNIFICANT WEATHER AND/OR OBSTRUCTIONS TO VISIBILITY.

TXZ118-119-101600-
DALLAS/FORT WORTH METROPLEX

CITY           SKY/WX    TMP DP  RH WIND       PRES   REMARKS
DFW AIRPORT    MOSUNNY   43  30  60 S5        30.33R
DALLAS LOVE    SUNNY     44  24  45 S7        30.34R
FTW MEACHAM    SUNNY     44  30  57 S8        30.33S WCI  39
DAL-EXECUTIVE  SUNNY     45  24  43 VRB5      30.33R
FTW-ALLIANCE   SUNNY     44  30  57 SW6       30.32S
FTW-NAS-JRB    SUNNY     44  29  55 S7        30.34R
FTW-SPINKS     SUNNY     43  30  61 S8        30.35S WCI  38
ARLINGTON      SUNNY     46  27  47 S6        30.34R
GRAND PRAIRIE  SUNNY     45  27  49 S3        30.36R
ADDISON        SUNNY     43  27  52 S6        30.34R WCI  39
MESQUITE       SUNNY     41  28  60 S5        30.35R WCI  38
LANCASTER      SUNNY     42  24  47 S5        30.36R WCI  40
$$

TXZ091>094-102>105-117-120-121-131>134-101600-
NORTH CENTRAL TEXAS

CITY           SKY/WX    TMP DP  RH WIND       PRES   REMARKS
SHRMAN/DENISON SUNNY     40  28  62 SW3       30.33S
GAINESVILLE    SUNNY     37  26  64 CALM      30.33S
BOWIE          SUNNY     40  29  64 S8        30.30S WCI  35
BRIDGEPORT     SUNNY     42  30  62 CALM      30.33S
DECATUR        SUNNY     44  24  45 S7        30.31S WCI  40
DENTON         SUNNY     38  29  70 CALM      30.33S
MCKINNEY       SUNNY     41  28  60 S3        30.34R
GREENVILLE     SUNNY     43  27  52 CALM      30.35S
ROCKWALL       SUNNY     44  23  42 CALM      30.33R
TERRELL        SUNNY     40  28  62 CALM      30.36R
WAXAHACHIE     SUNNY     43  31  62 S3        30.36R
CLEBURNE       SUNNY     43  30  61 S6        30.36R WCI  39
GRANBURY       SUNNY     45  32  59 S5        30.35S
$$

TXZ083>090-098>101-113>116-127>130-139>142-154-155-101600-
WESTERN NORTH TEXAS

CITY           SKY/WX    TMP DP  RH WIND       PRES   REMARKS
WICHITA FALLS  SUNNY     38  29  70 VRB3      30.28F
WF-KICKAPOO    SUNNY     40  28  63 S7        30.29F WCI  35
VERNON         SUNNY     38  24  57 SW6       30.27S WCI  34
ABILENE        SUNNY     47  30  51 S7        30.32S
ABILENE-DYESS  SUNNY     51  31  45 S6        30.31S
BRECKENRIDGE   SUNNY     49  30  48 SW10      30.31S
GRAHAM         SUNNY     43  29  59 S5        30.30S
MINERAL WELLS  SUNNY     39  31  72 SE5       30.31S WCI  36
STEPHENVILLE   SUNNY     45  29  55 S9        30.36S WCI  40
COMANCHE       SUNNY     49  31  49 S12       30.34R
BROWNWOOD      SUNNY     41  28  60 MISG      30.37R
COLEMAN        SUNNY     46  30  52 SW7       30.35S
$$

TXZ143>147-156>162-174-175-101600-
CENTRAL TEXAS

CITY           SKY/WX    TMP DP  RH WIND       PRES   REMARKS
WACO           SUNNY     43  31  62 SW6       30.37S WCI  39
WACO-TSTC      SUNNY     45  32  61 CALM      30.38R
WACO-MCGREGOR  SUNNY     46  30  53 S6        30.38R
HILLSBORO      SUNNY     42  30  62 S5        30.36R WCI  40
CORSICANA      SUNNY     44  31  60 SW6       30.37S
MEXIA          SUNNY     45  28  51 S12       30.36S WCI  39
HEARNE         SUNNY     42  32  67 CALM      30.42R
CAMERON        SUNNY     46  32  58 CALM      30.39R
TEMPLE         SUNNY     45  36  70 CALM      30.39R
KILLEEN        SUNNY     48  27  43 S6        30.36S
KILLEEN-SKYLRK SUNNY     47  30  51 S5        30.38R
FORT HOOD      SUNNY     48  28  46 S6        30.35S
GATESVILLE     SUNNY     45  32  61 CALM      30.39R
HAMILTON       SUNNY     47  31  54 S9        30.36R
LAMPASAS       SUNNY     49  31  50 S5        30.36S
$$

TXZ095>097-106>112-122>126-135>138-148>153-164>167-101600-
EAST TEXAS

CITY           SKY/WX    TMP DP  RH WIND       PRES   REMARKS
PARIS          SUNNY     37  19  48 CALM      30.34R
SULPHUR SPRNGS SUNNY     40  27  59 CALM      30.37S
MOUNT PLEASANT SUNNY     39  26  59 CALM      30.37R
GILMER           N/A    N/A N/A N/A MISG        N/A
MINEOLA        SUNNY     45  27  49 CALM      30.36S
TYLER          SUNNY     43  24  47 CALM      30.36R
LONGVIEW       SUNNY     42  25  50 CALM      30.36R
MARSHALL       SUNNY     42  25  50 N3        30.38S
ATHENS         SUNNY     41  28  60 CALM      30.36R
PALESTINE      SUNNY     44  29  56 CALM      30.38R
JACKSONVILLE   SUNNY     45  24  42 CALM      30.37S
HENDERSON      SUNNY     43  27  54 CALM      30.37S
CENTER         FAIR      45  24  44 CALM      30.36S
NACOGDOCHES    SUNNY     41  27  56 CALM      30.37R
LUFKIN         SUNNY     45  28  51 NE3       30.38S
$$

SUPPLEMENTAL OBSERVATIONS (CENTRAL)

CITY           SKY/WX    TMP DP  RH WIND       PRES   REMARKS
LAKE TEXOMA      N/A     43  30  61 CALM        N/A
CADDO GRASSLND   N/A     39  27  60 S3          N/A
PAT MAYSE LAKE   N/A     36  19  51 SE2         N/A
GREENVILLE       N/A     43  27  52 S2          N/A
CEDAR HILL       N/A     45  28  53 S5          N/A
ATHENS           N/A     46  27  46 S2          N/A
LAKE LIMESTONE   N/A     46  32  57 S5          N/A
MCGREGOR         N/A     45  32  61 SW3         N/A
$$

SUPPLEMENTAL OBSERVATIONS (WEST)

CITY           SKY/WX    TMP DP  RH WIND       PRES   REMARKS
MILLERS CREEK    N/A     43  32  65 SW13        N/A  WCI  36
LBJ GRASSLAND    N/A     45  28  53 S6          N/A
COMANCHE         N/A     52  34  50 S10         N/A
HAMBY            N/A     48  32  53 S8          N/A
$$

SUPPLEMENTAL OBSERVATIONS (EAST)

CITY           SKY/WX    TMP DP  RH WIND       PRES   REMARKS
CLARKSVILLE      N/A     43  23  45 CALM        N/A
TEXARKANA        N/A     43  21  42 N1          N/A
LINDEN           N/A     43  23  45 E1          N/A
CADDO LAKE       N/A     45  23  42 NW1         N/A
GILMER           N/A     46  28  49 S1          N/A
HENDERSON        N/A     48  28  46 CALM        N/A
LUFKIN           N/A     46  34  61 MISG        N/A
N SABINE NF      N/A     37  32  81 MISG        N/A
S SABINE NF      N/A     46  25  42 N3          N/A
$$

SUPPLEMENTAL OBSERVATIONS ARE A COLLECTION OF AUTOMATED INSTRUMENTS
THAT ARE MAINTAINED BY A VARIETY OF FEDERAL AND STATE AGENCIES.
CERTAIN ELEMENTS...SUCH AS HUMIDITY VALUES AND SUSTAINED WIND
SPEEDS...MAY BE APPROXIMATED.




USA.gov is the U.S. government's official web portal to all federal, state and local government web resources and services.